• In Österreich
  • Länderverzeichnis
  • Für 7 Tage
  • Wassertemperatur
  • Satellitenkarten
  • Wetterkarte
  • News
  • Widgets
  • user-avatar
    Anmelden

    Stündliche Wetter Nivy

    Heute, 16 Juli, Montag

    Zeit Temperatur Niederschläge Wind Luftdruck Luftfeuchtigkeit
    00:00 +19°C° 0,1 mm 1 m/S 739 mmHg 95%
    01:00 +19°C° 0,1 mm 1 m/S 739 mmHg 96%
    02:00 +18°C° 0,1 mm 2 m/S 739 mmHg 97%
    03:00 +18°C° 0 mm 2 m/S 740 mmHg 96%
    04:00 +18°C° 0 mm 2 m/S 740 mmHg 96%
    05:00 +18°C° 0 mm 2 m/S 740 mmHg 96%
    06:00 +19°C° 0 mm 2 m/S 740 mmHg 91%
    07:00 +21°C° 0 mm 3 m/S 740 mmHg 87%
    08:00 +22°C° 0 mm 3 m/S 740 mmHg 82%
    09:00 +25°C° 0,4 mm 3 m/S 740 mmHg 77%
    10:00 +26°C° 0,4 mm 3 m/S 740 mmHg 72%
    11:00 +27°C° 0,4 mm 4 m/S 740 mmHg 66%
    12:00 +27°C° 0,2 mm 4 m/S 740 mmHg 64%
    13:00 +28°C° 0,2 mm 4 m/S 739 mmHg 61%
    14:00 +28°C° 0,2 mm 4 m/S 739 mmHg 58%
    15:00 +28°C° 0,1 mm 4 m/S 739 mmHg 61%
    16:00 +27°C° 0,1 mm 4 m/S 739 mmHg 63%
    17:00 +27°C° 0,1 mm 3 m/S 739 mmHg 66%
    18:00 +25°C° 0 mm 3 m/S 739 mmHg 71%
    19:00 +24°C° 0 mm 3 m/S 739 mmHg 75%
    20:00 +21°C° 0 mm 3 m/S 739 mmHg 80%
    21:00 +21°C° 0 mm 3 m/S 739 mmHg 81%
    22:00 +20°C° 0 mm 3 m/S 739 mmHg 82%
    23:00 +19°C° 0 mm 3 m/S 739 mmHg 83%

    Morgen, 17 Juli, Dienstag

    Zeit Temperatur Niederschläge Wind Luftdruck Luftfeuchtigkeit
    00:00 +19°C° 0 mm 3 m/S 739 mmHg 85%
    01:00 +19°C° 0 mm 3 m/S 739 mmHg 86%
    02:00 +19°C° 0 mm 3 m/S 739 mmHg 88%
    03:00 +19°C° 0 mm 3 m/S 739 mmHg 87%
    04:00 +19°C° 0 mm 3 m/S 739 mmHg 87%
    05:00 +19°C° 0 mm 4 m/S 739 mmHg 87%
    06:00 +21°C° 0 mm 4 m/S 738 mmHg 81%
    07:00 +22°C° 0 mm 4 m/S 738 mmHg 75%
    08:00 +25°C° 0 mm 5 m/S 738 mmHg 70%
    09:00 +26°C° 0 mm 5 m/S 738 mmHg 66%
    10:00 +27°C° 0 mm 5 m/S 738 mmHg 62%
    11:00 +28°C° 0 mm 6 m/S 738 mmHg 58%
    12:00 +28°C° 0 mm 6 m/S 737 mmHg 57%
    13:00 +29°C° 0 mm 6 m/S 737 mmHg 57%
    14:00 +29°C° 0 mm 6 m/S 737 mmHg 57%
    15:00 +28°C° 0,2 mm 6 m/S 736 mmHg 61%
    16:00 +28°C° 0,2 mm 5 m/S 736 mmHg 65%
    17:00 +27°C° 0,2 mm 5 m/S 736 mmHg 70%
    18:00 +26°C° 0,1 mm 4 m/S 736 mmHg 74%
    19:00 +23°C° 0,1 mm 4 m/S 736 mmHg 79%
    20:00 +22°C° 0,1 mm 3 m/S 736 mmHg 84%
    21:00 +22°C° 0 mm 3 m/S 736 mmHg 87%
    22:00 +21°C° 0 mm 3 m/S 736 mmHg 89%
    23:00 +21°C° 0 mm 3 m/S 736 mmHg 91%

    übermorgen, 18 Juli, Mittwoch

    Zeit Temperatur Niederschläge Wind Luftdruck Luftfeuchtigkeit
    00:00 +21°C° 0 mm 3 m/S 736 mmHg 92%
    01:00 +20°C° 0 mm 3 m/S 736 mmHg 93%
    02:00 +20°C° 0 mm 3 m/S 736 mmHg 95%
    03:00 +20°C° 0 mm 4 m/S 736 mmHg 94%
    04:00 +20°C° 0 mm 4 m/S 736 mmHg 93%
    05:00 +20°C° 0 mm 4 m/S 736 mmHg 93%
    06:00 +21°C° 0 mm 4 m/S 736 mmHg 88%
    07:00 +22°C° 0 mm 5 m/S 736 mmHg 83%
    08:00 +23°C° 0 mm 5 m/S 736 mmHg 78%
    09:00 +25°C° 0 mm 5 m/S 736 mmHg 72%
    10:00 +26°C° 0 mm 5 m/S 736 mmHg 66%
    11:00 +28°C° 0 mm 6 m/S 736 mmHg 60%
    12:00 +28°C° 0,2 mm 6 m/S 736 mmHg 59%
    13:00 +28°C° 0,2 mm 6 m/S 736 mmHg 59%
    14:00 +28°C° 0,2 mm 6 m/S 736 mmHg 58%
    15:00 +27°C° 0,3 mm 5 m/S 736 mmHg 64%
    16:00 +26°C° 0,3 mm 5 m/S 736 mmHg 69%
    17:00 +25°C° 0,3 mm 5 m/S 736 mmHg 75%
    18:00 +23°C° 0,1 mm 4 m/S 736 mmHg 78%
    19:00 +22°C° 0,1 mm 4 m/S 736 mmHg 82%
    20:00 +21°C° 0,1 mm 3 m/S 736 mmHg 86%
    21:00 +20°C° 0 mm 3 m/S 736 mmHg 88%
    22:00 +20°C° 0 mm 3 m/S 736 mmHg 89%
    23:00 +19°C° 0 mm 3 m/S 736 mmHg 91%

    19 Juli, Donnerstag

    Zeit Temperatur Niederschläge Wind Luftdruck Luftfeuchtigkeit
    00:00 +18°C° 0 mm 3 m/S 736 mmHg 92%
    01:00 +18°C° 0 mm 3 m/S 736 mmHg 94%
    02:00 +18°C° 0 mm 3 m/S 736 mmHg 95%
    03:00 +18°C° 0,1 mm 3 m/S 736 mmHg 95%
    04:00 +18°C° 0,1 mm 3 m/S 736 mmHg 95%
    05:00 +18°C° 0,1 mm 3 m/S 736 mmHg 94%
    06:00 +18°C° 0,2 mm 3 m/S 736 mmHg 95%
    07:00 +18°C° 0,2 mm 3 m/S 736 mmHg 95%
    08:00 +19°C° 0,2 mm 2 m/S 736 mmHg 95%
    09:00 +20°C° 0,2 mm 2 m/S 737 mmHg 92%
    10:00 +21°C° 0,2 mm 2 m/S 737 mmHg 88%
    11:00 +23°C° 0,2 mm 2 m/S 737 mmHg 85%
    12:00 +24°C° 0,6 mm 2 m/S 737 mmHg 83%
    13:00 +25°C° 0,6 mm 2 m/S 737 mmHg 81%
    14:00 +26°C° 0,6 mm 3 m/S 737 mmHg 79%
    15:00 +26°C° 0,5 mm 3 m/S 737 mmHg 80%
    16:00 +26°C° 0,5 mm 3 m/S 737 mmHg 80%
    17:00 +26°C° 0,5 mm 3 m/S 737 mmHg 81%
    18:00 +24°C° 0,2 mm 3 m/S 737 mmHg 85%
    19:00 +23°C° 0,2 mm 2 m/S 737 mmHg 90%
    20:00 +21°C° 0,2 mm 2 m/S 737 mmHg 94%
    21:00 +20°C° 0,1 mm 2 m/S 737 mmHg 95%
    22:00 +20°C° 0,1 mm 2 m/S 737 mmHg 96%
    23:00 +19°C° 0,1 mm 2 m/S 737 mmHg 97%

    20 Juli, Freitag

    Zeit Temperatur Niederschläge Wind Luftdruck Luftfeuchtigkeit
    00:00 +18°C° 0 mm 2 m/S 737 mmHg 97%
    01:00 +18°C° 0 mm 2 m/S 737 mmHg 97%
    02:00 +18°C° 0 mm 2 m/S 737 mmHg 97%
    03:00 +18°C° 0 mm 2 m/S 737 mmHg 97%
    04:00 +18°C° 0 mm 2 m/S 737 mmHg 96%
    05:00 +18°C° 0 mm 2 m/S 738 mmHg 96%
    06:00 +20°C° 0 mm 2 m/S 738 mmHg 91%
    07:00 +21°C° 0 mm 2 m/S 738 mmHg 86%
    08:00 +24°C° 0 mm 2 m/S 738 mmHg 81%
    09:00 +25°C° 0,4 mm 2 m/S 738 mmHg 77%
    10:00 +26°C° 0,4 mm 3 m/S 738 mmHg 73%
    11:00 +27°C° 0,4 mm 3 m/S 737 mmHg 70%
    12:00 +27°C° 0,6 mm 3 m/S 737 mmHg 71%
    13:00 +27°C° 0,6 mm 3 m/S 737 mmHg 73%
    14:00 +27°C° 0,6 mm 3 m/S 737 mmHg 75%
    15:00 +27°C° 0,2 mm 3 m/S 737 mmHg 74%
    16:00 +27°C° 0,2 mm 3 m/S 737 mmHg 73%
    17:00 +27°C° 0,2 mm 3 m/S 737 mmHg 73%
    18:00 +26°C° 0,5 mm 3 m/S 737 mmHg 79%
    19:00 +24°C° 0,5 mm 2 m/S 737 mmHg 86%
    20:00 +23°C° 0,5 mm 2 m/S 737 mmHg 92%
    21:00 +21°C° 0,4 mm 2 m/S 737 mmHg 93%
    22:00 +22°C° 0,4 mm 1 m/S 737 mmHg 95%
    23:00 +21°C° 0,4 mm 1 m/S 737 mmHg 96%

    21 Juli, Samstag

    Zeit Temperatur Niederschläge Wind Luftdruck Luftfeuchtigkeit
    00:00 +21°C° 0 mm 1 m/S 737 mmHg 96%
    01:00 +21°C° 0 mm 1 m/S 737 mmHg 97%
    02:00 +20°C° 0 mm 1 m/S 737 mmHg 97%
    03:00 +21°C° 0,5 mm 1 m/S 737 mmHg 97%
    04:00 +21°C° 0,5 mm 1 m/S 737 mmHg 97%
    05:00 +21°C° 0,5 mm 1 m/S 737 mmHg 97%
    06:00 +22°C° 0,1 mm 1 m/S 737 mmHg 93%
    07:00 +24°C° 0,1 mm 1 m/S 737 mmHg 90%
    08:00 +25°C° 0,1 mm 2 m/S 737 mmHg 86%
    09:00 +26°C° 0,1 mm 2 m/S 737 mmHg 78%
    10:00 +28°C° 0,1 mm 2 m/S 737 mmHg 70%
    11:00 +29°C° 0,1 mm 2 m/S 737 mmHg 61%
    12:00 +30°C° 0 mm 2 m/S 737 mmHg 60%
    13:00 +30°C° 0 mm 2 m/S 737 mmHg 59%
    14:00 +31°C° 0 mm 2 m/S 737 mmHg 57%
    15:00 +30°C° 0,7 mm 2 m/S 737 mmHg 65%
    16:00 +29°C° 0,7 mm 2 m/S 737 mmHg 72%
    17:00 +28°C° 0,7 mm 2 m/S 737 mmHg 79%
    18:00 +27°C° 0,3 mm 2 m/S 737 mmHg 83%
    19:00 +25°C° 0,3 mm 2 m/S 737 mmHg 87%
    20:00 +24°C° 0,3 mm 2 m/S 737 mmHg 91%
    21:00 +23°C° 0,6 mm 2 m/S 737 mmHg 92%
    22:00 +21°C° 0,6 mm 2 m/S 737 mmHg 94%
    23:00 +22°C° 0,6 mm 1 m/S 737 mmHg 95%
    Mehr zeigen